GW2884 Weather Reports


time (UTC)temp
C
wind
direction
speed
KPH
gust
KPH
rain 1hr
cm
rain 24hr
cm
rain mn
cm
humidity
%
barometer
mb
20260505050829 2 243 0.0 1.6 0.00 0.00 0.00 78 1003.2
20260505050328 2 228 3.2 6.4 0.00 0.00 0.00 77 1003.3
20260505041758 2 200 0.0 1.6 0.00 0.08 0.08 82 1003.1
20260505041255 2 205 0.0 0.0 0.00 0.08 0.08 82 1003.1
20260505040752 2 271 1.6 3.2 0.00 0.08 0.08 83 1003.0
20260505040250 2 271 3.2 4.8 0.00 0.08 0.08 83 1003.1
20260505035746 2 250 6.4 6.4 0.00 0.08 0.08 83 1003.1
20260505035242 2 264 1.6 3.2 0.00 0.08 0.08 83 1003.0
20260505034739 2 239 0.0 1.6 0.00 0.08 0.08 84 1002.9
20260505034236 2 274 4.8 4.8 0.00 0.08 0.08 84 1002.9
20260505033733 2 259 3.2 3.2 0.00 0.08 0.08 84 1003.1
20260505033231 2 209 1.6 1.6 0.00 0.08 0.08 84 1003.2
20260505032728 2 293 1.6 3.2 0.00 0.08 0.08 84 1003.1
20260505032224 2 235 1.6 3.2 0.00 0.08 0.08 84 1003.0
20260505031722 2 237 6.4 9.7 0.00 0.08 0.08 83 1003.0
20260505031218 2 292 3.2 3.2 0.00 0.08 0.08 82 1003.0
20260505030715 2 237 1.6 3.2 0.00 0.08 0.08 81 1003.0
20260505030211 3 279 1.6 3.2 0.00 0.08 0.08 81 1003.0
20260505025707 3 230 1.6 3.2 0.00 0.08 0.08 81 1002.8
20260505025206 3 188 6.4 9.7 0.00 0.08 0.08 79 1002.7
20260505024703 3 307 3.2 4.8 0.00 0.08 0.08 80 1002.7
20260505024200 3 296 3.2 12.9 0.00 0.08 0.08 80 1002.6
20260505023657 3 259 9.7 11.3 0.00 0.08 0.08 79 1002.5
20260505023154 3 290 4.8 9.7 0.00 0.08 0.08 77 1002.6
20260505022652 3 212 1.6 1.6 0.00 0.08 0.08 76 1002.7
20260505022149 3 249 3.2 4.8 0.00 0.08 0.08 76 1002.5
20260505021645 3 159 0.0 0.0 0.00 0.08 0.08 75 1002.3
20260505021142 3 212 1.6 1.6 0.00 0.08 0.08 73 1002.3
20260505020638 3 237 3.2 4.8 0.00 0.08 0.08 73 1002.2
20260505020134 4 285 6.4 6.4 0.00 0.08 0.08 71 1002.1
20260505015631 4 211 0.0 1.6 0.00 0.08 0.08 71 1002.0
20260505015128 4 245 1.6 1.6 0.00 0.08 0.08 70 1002.0
20260505014624 4 288 4.8 6.4 0.00 0.08 0.08 69 1001.9
20260505014122 4 228 1.6 1.6 0.00 0.08 0.08 69 1001.8
20260505013619 5 233 1.6 3.2 0.00 0.08 0.08 68 1001.7
20260505013116 5 224 8.0 14.5 0.00 0.08 0.08 67 1001.7
20260505012615 5 267 4.8 9.7 0.00 0.08 0.08 63 1001.8
20260505012111 5 222 3.2 6.4 0.00 0.08 0.08 64 1001.5
20260505011607 5 247 8.0 11.3 0.00 0.08 0.08 62 1001.7
20260505011104 5 245 3.2 4.8 0.00 0.08 0.08 62 1001.7
20260505010559 5 225 6.4 6.4 0.00 0.08 0.08 61 1001.5
20260505010056 5 201 4.8 6.4 0.00 0.08 0.08 60 1001.5
20260505005552 5 287 4.8 6.4 0.00 0.08 0.08 55 1001.3
20260505005050 5 198 4.8 4.8 0.00 0.08 0.08 57 1001.3
20260505004546 5 284 3.2 6.4 0.00 0.08 0.08 57 1001.2
20260505004043 5 221 4.8 6.4 0.00 0.08 0.08 57 1001.2
20260505003541 5 252 9.7 14.5 0.00 0.08 0.08 57 1000.9
20260505003038 5 237 4.8 6.4 0.00 0.08 0.08 56 1001.3
20260505002537 5 259 11.3 14.5 0.00 0.08 0.08 56 1001.2
20260505002032 6 228 6.4 9.7 0.00 0.08 0.08 56 1001.0
20260505001529 6 227 6.4 11.3 0.00 0.08 0.08 56 1000.9
20260505001026 6 232 6.4 9.7 0.00 0.08 0.08 56 1000.9
20260505000523 6 215 4.8 6.4 0.00 0.08 0.08 58 1000.9
20260505000021 6 278 6.4 6.4 0.00 0.08 0.08 56 1000.9
20260504235517 5 233 8.0 11.3 0.00 0.08 0.08 57 1001.0
20260504235013 6 300 8.0 11.3 0.00 0.08 0.08 57 1000.8
20260504234511 6 267 6.4 6.4 0.00 0.08 0.08 59 1000.7
20260504234008 6 248 4.8 6.4 0.00 0.08 0.08 60 1000.8
20260504233503 6 270 8.0 11.3 0.00 0.08 0.08 61 1000.6
20260504233000 5 189 6.4 11.3 0.00 0.08 0.08 59 1000.7
20260504232457 5 228 3.2 4.8 0.00 0.08 0.08 60 1000.8
20260504231955 5 205 3.2 4.8 0.00 0.08 0.08 60 1000.7
20260504231451 5 221 1.6 3.2 0.00 0.08 0.08 61 1000.6
20260504230947 5 223 4.8 6.4 0.00 0.08 0.08 63 1000.7
20260504230444 5 245 8.0 9.7 0.00 0.08 0.08 63 1000.5
20260504225943 5 248 6.4 9.7 0.00 0.08 0.08 63 1000.5
20260504225439 5 225 8.0 9.7 0.00 0.08 0.08 63 1000.5
20260504224936 5 260 4.8 6.4 0.00 0.08 0.08 64 1000.6
20260504224433 5 217 8.0 17.7 0.00 0.08 0.08 63 1000.4
20260504223930 6 240 6.4 11.3 0.00 0.08 0.08 63 1000.4
20260504223426 5 227 8.0 11.3 0.00 0.08 0.08 65 1000.4
20260504222921 6 213 4.8 6.4 0.00 0.08 0.08 67 1000.4
20260504222419 6 259 8.0 14.5 0.00 0.08 0.08 68 1000.2
20260504221917 6 178 1.6 1.6 0.00 0.08 0.08 68 1000.1
20260504221414 6 275 9.7 14.5 0.00 0.08 0.08 67 1000.2
20260504220911 6 207 11.3 14.5 0.00 0.08 0.08 67 1000.1
20260504220407 5 213 22.5 30.6 0.00 0.08 0.08 68 1000.2
20260504215905 6 249 11.3 16.1 0.00 0.08 0.08 68 999.9
20260504215401 6 228 6.4 9.7 0.00 0.08 0.08 69 999.8
20260504214857 6 221 6.4 9.7 0.00 0.08 0.08 68 999.7
20260504214354 6 230 12.9 16.1 0.00 0.08 0.08 67 999.8
20260504213851 6 245 12.9 16.1 0.00 0.08 0.08 67 999.6
20260504213347 6 239 12.9 17.7 0.00 0.08 0.08 67 999.7
20260504212844 6 262 6.4 6.4 0.00 0.08 0.08 69 999.7
20260504212340 6 221 11.3 17.7 0.00 0.08 0.08 70 999.7
20260504211838 6 247 9.7 14.5 0.00 0.08 0.08 69 999.5
20260504211334 6 233 6.4 14.5 0.00 0.08 0.08 68 999.6
20260504210832 6 212 8.0 12.9 0.00 0.08 0.08 67 999.5
20260504210328 6 276 6.4 6.4 0.00 0.08 0.08 68 999.5
20260504205826 6 210 6.4 6.4 0.00 0.08 0.08 68 999.5
20260504205323 6 198 20.9 30.6 0.00 0.08 0.08 68 999.3
20260504204821 6 254 6.4 6.4 0.00 0.08 0.08 68 999.5
20260504204319 6 266 8.0 11.3 0.00 0.08 0.08 68 999.3
20260504203819 6 262 3.2 4.8 0.00 0.08 0.08 69 999.3
20260504203315 6 213 11.3 16.1 0.00 0.08 0.08 67 999.0
20260504202810 6 248 8.0 11.3 0.00 0.08 0.08 68 999.2
20260504202308 6 225 9.7 16.1 0.00 0.08 0.08 69 999.0
20260504201804 6 248 9.7 14.5 0.00 0.08 0.08 68 999.3
20260504201302 6 178 6.4 9.7 0.00 0.08 0.08 69 999.1
20260504200800 6 262 8.0 12.9 0.00 0.08 0.08 70 999.2
20260504200256 6 213 6.4 12.9 0.00 0.08 0.08 70 998.9
20260504195752 6 217 16.1 17.7 0.00 0.08 0.08 71 999.0
20260504195248 6 218 14.5 20.9 0.00 0.08 0.08 70 998.7
20260504194745 6 245 16.1 20.9 0.00 0.08 0.08 69 998.8
20260504194241 6 236 6.4 6.4 0.00 0.08 0.08 69 998.8
20260504193737 6 216 4.8 6.4 0.00 0.08 0.08 71 998.4
20260504193235 6 232 9.7 12.9 0.00 0.08 0.08 70 998.4
20260504192733 7 222 6.4 12.9 0.00 0.08 0.08 68 998.4
20260504192231 6 244 9.7 12.9 0.00 0.08 0.08 70 998.4
20260504191730 6 241 6.4 6.4 0.00 0.08 0.08 72 998.4
20260504191226 6 210 9.7 14.5 0.00 0.08 0.08 71 998.4
20260504190721 6 236 9.7 14.5 0.00 0.08 0.08 72 998.1
20260504190218 6 247 8.0 12.9 0.00 0.08 0.08 71 998.1
20260504185715 6 265 6.4 9.7 0.00 0.08 0.08 69 998.0
20260504185212 8 248 12.9 24.1 0.00 0.08 0.08 67 998.0
20260504184708 6 241 8.0 11.3 0.00 0.08 0.08 71 997.8
20260504184203 6 240 16.1 20.9 0.00 0.08 0.08 71 997.7
20260504183700 7 198 6.4 9.7 0.00 0.08 0.08 73 997.7
20260504183157 7 231 6.4 6.4 0.00 0.08 0.08 72 997.5
20260504182654 6 204 6.4 9.7 0.00 0.08 0.08 75 997.4
20260504182152 6 247 12.9 16.1 0.00 0.08 0.08 70 997.4
20260504181649 7 222 8.0 11.3 0.00 0.08 0.08 72 997.3
20260504181147 7 246 14.5 25.7 0.00 0.08 0.08 75 997.2
20260504180646 6 226 6.4 11.3 0.00 0.08 0.08 82 997.1
20260504180144 6 235 16.1 22.5 0.00 0.08 0.08 81 997.3
20260504175641 7 226 12.9 14.5 0.00 0.08 0.08 71 997.1
20260504175137 8 262 8.0 16.1 0.00 0.08 0.08 68 997.1
20260504174636 7 248 14.5 20.9 0.00 0.08 0.08 70 996.9
20260504174132 7 220 11.3 12.9 0.00 0.08 0.08 73 996.7
20260504173629 7 232 17.7 27.4 0.00 0.08 0.08 76 996.6
20260504173127 7 222 3.2 4.8 0.00 0.08 0.08 76 996.7
20260504172623 6 231 9.7 12.9 0.00 0.08 0.08 79 996.5
20260504172120 7 241 8.0 9.7 0.00 0.08 0.08 79 996.6
20260504171616 6 234 4.8 4.8 0.00 0.08 0.08 84 996.5
20260504171114 6 241 6.4 9.7 0.00 0.08 0.08 82 996.5
20260504170609 7 229 11.3 24.1 0.00 0.08 0.08 71 996.3
20260504170107 7 251 14.5 17.7 0.00 0.08 0.08 70 996.4
20260504150953 6 205 4.8 6.4 0.00 0.08 0.08 80 994.8
20260504150450 6 210 6.4 9.7 0.00 0.08 0.08 81 994.7
20260504140916 8 204 6.4 9.7 0.00 0.08 0.08 83 993.2
20260504140412 8 217 9.7 14.5 0.00 0.08 0.08 78 993.1
20260504130337 7 238 8.0 9.7 0.00 0.08 0.08 89 992.5
20260504120300 7 188 9.7 11.3 0.00 0.08 0.08 93 991.8
20260504110224 8 308 6.4 11.3 0.00 0.00 0.00 87 991.9
20260504100148 10 119 1.6 3.2 0.00 0.00 0.00 69 991.8
20260504090110 15 185 9.7 11.3 0.00 0.00 0.00 40 989.8
20260504081541 14 226 12.9 16.1 0.00 0.00 0.00 41 990.5
20260504081037 14 143 3.2 9.7 0.00 0.00 0.00 41 990.6
20260504080533 14 177 11.3 14.5 0.00 0.00 0.00 41 990.7